Starlink 31965

operational
NORAD ID: 59888 Int'l Des: 2024-100 Owner: SPXS Country: US Constellation: starlink
LEOCIRCULAR

About Starlink 31965

Description loading...

Live Position

Loading 3D Globe...

Upcoming Passes

Altitude History

Altitude vs Time

uPlot chart will show altitude changes over time

Two-Line Element Set

1 59888U 24100D 25260.08150213 -.00002842 00000-0 -93829-4 0 9993
2 59888 43.0033 26.0239 0000798 263.1652 96.9109 15.27574564 74500
Epoch: Sep 17, 2025 • Age: 23 hours

Current Status

Altitude 493.9 km
Velocity 7.62 km/s
Sub-Earth Point -38.19°S, 114.47°W
Launch Date May 28, 2024
Age 1.3 years
Type internet

Technical Details

Classification Payload
Mass 730.00 kg
Dry Mass 700.00 kg
Total Mass 730.00 kg
Length 0.30 m
Diameter 4.10 m
Span 29.00 m
Shape Box + pan
Manufacturer SPXS
Bus Type Starlink V2M
Phase Status In Orbit
Owner/State SPXS/US

Large Constellations

Loading constellations...